[[{"header":{"parameterUnit":"m.s-1","parameterCategory":1,"la1":30.2991,"la2":30.254,"lo1":-89.0895,"lo2":-89.0444,"dy":0.0017,"dx":0.0017,"nx":28,"ny":28,"refTime":"2024-08-16T09:00:00:Z","depth":0,"parameterNumber":2,"parameterNumberName":"U-component_of_WINDS"},"data":[0,0,0,0,0,0,0,0,0,0,0,0,0,0,0,0,0,0,0,0,0,0,0,0,0,0,0,0,0,0,0,0,0,0,0,0,0,0,0,0,0,0,0,0,0,0,0,0,0,0,0,0,0,0,0,0,0,0,-2.0083,-2.0083,0,-2.0112,-2.0113,-2.0113,-2.0107,-2.0107,-2.0106,-2.0106,-2.0137,-2.0138,-2.014,0,0,0,0,0,0,0,0,0,0,0,0,0,-2.0023,-2.0024,-2.0083,-2.0083,-2.0083,-2.0112,-2.0113,-2.0113,-2.0107,-2.0107,-2.0106,-2.0105,-2.0137,-2.0138,-2.014,0,0,0,0,0,0,0,0,0,0,0,0,0,-2.005,-2.0024,-2.0083,-2.0084,-2.0084,-2.0112,-2.0113,-2.0113,-2.0107,-2.0107,-2.0106,-2.0105,-2.0136,-2.0138,-2.014,-2.0169,0,0,-2.0146,-2.0147,0,0,0,0,0,0,0,0,-2.0049,-2.0053,-2.0083,-2.0084,-2.0084,-2.0105,-2.0103,-2.0132,-2.0108,-2.0099,-2.0106,-2.0105,-2.0127,-2.013,-2.0137,-2.017,-2.0172,-2.0146,-2.0148,-2.0149,-2.0149,0,0,0,0,0,0,0,-2.0047,-2.0051,-2.0094,-2.0084,-2.0084,-2.0084,-2.0087,-2.0109,-2.0117,-2.0099,-2.0099,-2.0103,-2.0127,-2.0135,-2.0138,-2.0172,-2.0146,-2.0148,-2.0149,-2.015,-2.0231,-2.0232,0,0,0,0,0,0,-2.0044,-2.005,-2.0093,-2.0095,-2.0064,-2.0085,-2.0089,-2.0099,-2.0117,-2.0119,-2.0103,-2.0102,-2.0132,-2.0136,-2.0139,-2.0174,-2.0149,-2.015,-2.0152,-2.0231,-2.0232,-2.0233,0,0,0,0,0,0,-2.0043,-2.0048,-2.0092,-2.0072,-2.0078,-2.0087,-2.0099,-2.01,-2.0108,-2.012,-2.0122,-2.011,-2.0132,-2.0136,-2.0162,-2.0175,-2.0151,-2.0153,-2.0229,-2.0231,-2.0232,-2.0244,0,0,0,0,0,0,-2.0041,-2.0048,-2.0058,-2.0073,-2.0079,-2.0114,-2.01,-2.0102,-2.0112,-2.0111,-2.0126,-2.0128,-2.0132,-2.0159,-2.0164,-2.0177,-2.0155,-2.0228,-2.023,-2.0232,-2.0242,-2.0246,-2.0248,0,0,0,0,0,-2.0039,-2.006,-2.0059,-2.0064,-2.0092,-2.0114,-2.0118,-2.0121,-2.0113,-2.0124,-2.0131,-2.0128,-2.0173,-2.0161,-2.0167,-2.0181,-2.0227,-2.023,-2.0232,-2.0241,-2.0245,-2.0248,0,0,0,0,0,0,-2.0047,-2.0062,-2.006,-2.0087,-2.0099,-2.0113,-2.0127,-2.0125,-2.014,-2.0139,-2.0143,-2.0146,-2.0172,-2.018,-2.0166,-2.0211,-2.0199,-2.0203,-2.0205,-2.0208,-2.0211,-2.0208,-2.0156,0,0,0,0,0,-2.0052,-2.0068,-2.0081,-2.0103,-2.0109,-2.0117,-2.0127,-2.0129,-2.0142,-2.0147,-2.0156,-2.017,-2.0187,-2.0199,-2.0215,-2.0244,-2.0248,-2.0257,-2.026,-2.0263,-2.0265,-2.0282,-2.0286,-2.024,-2.024,-2.024,0,0,-2.0062,-2.0072,-2.0082,-2.0105,-2.0115,-2.0132,-2.0122,-2.014,-2.0153,-2.015,-2.0174,-2.0182,-2.0197,-2.0225,-2.0237,-2.0232,-2.0279,-2.0265,-2.0267,-2.0268,-2.0284,-2.0289,-2.0292,-2.0241,-2.0241,-2.0241,0,0,-2.0089,-2.0099,-2.0118,-2.0128,-2.0144,-2.0149,-2.0154,-2.0168,-2.0173,-2.0198,-2.0196,-2.0212,-2.0242,-2.0253,-2.0262,-2.0296,-2.0293,-2.0301,-2.0316,-2.0332,-2.0336,-2.0339,-2.0351,-2.0355,-2.0304,-2.0304,-2.0304,0,-2.01,-2.0125,-2.0129,-2.0147,-2.0158,-2.0156,-2.0176,-2.0186,-2.0206,-2.0214,-2.0207,-2.0245,-2.0256,-2.0286,-2.0294,-2.0302,-2.0308,-2.0299,-2.0335,-2.0338,-2.0341,-2.0353,-2.0357,-2.0305,-2.0305,-2.0305,-2.0305,0,-2.0137,-2.0155,-2.0169,-2.0188,-2.0201,-2.022,-2.0227,-2.0239,-2.0241,-2.0247,-2.0273,-2.0285,-2.0304,-2.0312,-2.0313,-2.0343,-2.0339,-2.0334,-2.0322,-2.0347,-2.0357,-2.0361,-2.0306,-2.0306,-2.0306,-2.0305,0,0,-2.0169,-2.019,-2.0195,-2.0204,-2.0221,-2.0236,-2.0256,-2.0275,-2.0285,-2.03,-2.0317,-2.0343,-2.0338,-2.0349,-2.0352,-2.0367,-2.0392,-2.036,-2.036,-2.0365,-2.0426,-2.0429,-2.0433,-2.0391,-2.0392,-2.0393,-2.0424,0,-2.0197,-2.0231,-2.0236,-2.0267,-2.0283,-2.0283,-2.0301,-2.0314,-2.0321,-2.0337,-2.0345,-2.0363,-2.0356,-2.0363,-2.0377,-2.0386,-2.0404,-2.0384,-2.0407,-2.0408,-2.0402,-2.0439,-2.0442,-2.0471,-2.0428,-2.0429,-2.043,0,-2.0234,-2.0249,-2.0281,-2.0297,-2.0304,-2.032,-2.0338,-2.0353,-2.0368,-2.0373,-2.0386,-2.0387,-2.0409,-2.0397,-2.0428,-2.0414,-2.0424,-2.043,-2.0432,-2.0433,-2.0419,-2.0441,-2.048,-2.0484,-2.0436,-2.0436,-2.0435,0,-2.0253,-2.0281,-2.0305,-2.0312,-2.0331,-2.0342,-2.0351,-2.0365,-2.0377,-2.0393,-2.0401,-2.042,-2.043,-2.0445,-2.0452,-2.0443,-2.0482,-2.0471,-2.0486,-2.0486,-2.0493,-2.0492,-2.0534,-2.0501,-2.0501,-2.0501,-2.0501,0,-2.0283,-2.0303,-2.0313,-2.0327,-2.035,-2.0356,-2.0378,-2.0387,-2.04,-2.0416,-2.0418,-2.0433,-2.0442,-2.0459,-2.0465,-2.049,-2.0494,-2.0499,-2.05,-2.0498,-2.0497,-2.0504,-2.0502,-2.0502,-2.0502,-2.0502,-2.0502,0,-2.0307,-2.0315,-2.034,-2.0357,-2.0361,-2.0377,-2.0391,-2.0406,-2.0413,-2.0434,-2.0439,-2.0451,-2.0472,-2.0481,-2.0506,-2.051,-2.0538,-2.0538,-2.0532,-2.0532,-2.0547,-2.0545,-2.0593,-2.06,-2.0564,-2.0564,-2.0564,0,-2.0326,-2.0341,-2.0359,-2.037,-2.0378,-2.0396,-2.0407,-2.0415,-2.0427,-2.0446,-2.0458,-2.0479,-2.0495,-2.0528,-2.0539,-2.0559,-2.0559,-2.0575,-2.0562,-2.056,-2.0559,-2.0558,-2.0559,-2.0577,-2.0577,-2.0577,-2.0578,0,-2.0357,-2.0361,-2.0377,-2.0395,-2.0409,-2.0423,-2.0438,-2.0447,-2.0456,-2.047,-2.0491,-2.0504,-2.053,-2.055,-2.0571,-2.0581,-2.0581,-2.0582,-2.0586,-2.0584,-2.058,-2.0582,-2.0538,-2.058,-2.058,-2.058,-2.058,-2.058,-2.0379,-2.0393,-2.0407,-2.0426,-2.0437,-2.0451,-2.0465,-2.0475,-2.0492,-2.0513,-2.0517,-2.0539,-2.0555,-2.0583,-2.0594,-2.0612,-2.0608,-2.0614,-2.0616,-2.0617,-2.0618,-2.0578,-2.0616,-2.0615,-2.0615,-2.0615,-2.0615,0,-2.0411,-2.042,-2.0437,-2.0457,-2.0472,-2.0471,-2.0487,-2.05,-2.0519,-2.0534,-2.055,-2.0575,-2.0595,-2.0608,-2.0629,-2.0641,-2.0642,-2.0646,-2.0645,-2.0647,-2.062,-2.0614,-2.0645,-2.0645,-2.0645,-2.0645,-2.0645,-2.0645,-2.0429,-2.0452,-2.0457,-2.0486,-2.0496,-2.0517,-2.0527,-2.054,-2.0552,-2.0578,-2.0595,-2.0603,-2.0618,-2.064,-2.0659,-2.0662,-2.067,-2.0674,-2.0678,-2.0652,-2.0649,-2.0646,-2.064,-2.0676,-2.0676,-2.0703,-2.0703,-2.0703]},{"header":{"parameterUnit":"m.s-1","parameterCategory":1,"la1":30.2991,"la2":30.254,"lo1":-89.0895,"lo2":-89.0444,"dy":0.0017,"dx":0.0017,"nx":28,"ny":28,"refTime":"2024-08-16T09:00:00:Z","depth":0,"parameterNumber":3,"parameterNumberName":"V-component_of_WINDS"},"data":[0,0,0,0,0,0,0,0,0,0,0,0,0,0,0,0,0,0,0,0,0,0,0,0,0,0,0,0,0,0,0,0,0,0,0,0,0,0,0,0,0,0,0,0,0,0,0,0,0,0,0,0,0,0,0,0,0,0,4.6898,4.69,0,4.7091,4.7093,4.7096,4.7201,4.7201,4.7201,4.7202,4.7399,4.7403,4.7408,0,0,0,0,0,0,0,0,0,0,0,0,0,4.6623,4.6627,4.6898,4.69,4.6903,4.7091,4.7093,4.7096,4.7201,4.7201,4.7201,4.7202,4.7397,4.7403,4.7409,0,0,0,0,0,0,0,0,0,0,0,0,0,4.6772,4.6629,4.6898,4.6978,4.6987,4.709,4.7094,4.7097,4.7201,4.7201,4.7202,4.7202,4.7395,4.7402,4.741,4.7448,0,0,4.7433,4.7436,0,0,0,0,0,0,0,0,4.6763,4.6782,4.6964,4.6973,4.6983,4.7122,4.7069,4.7214,4.7201,4.712,4.7202,4.7202,4.7306,4.7321,4.7356,4.7457,4.7466,4.7433,4.7438,4.7441,4.7443,0,0,0,0,0,0,0,4.6753,4.6774,4.6975,4.6966,4.6978,4.7005,4.7027,4.7097,4.7208,4.7127,4.7135,4.7156,4.7312,4.7349,4.7362,4.7468,4.7433,4.744,4.7444,4.7447,4.7615,4.7615,0,0,0,0,0,0,4.6729,4.6765,4.6968,4.698,4.6872,4.701,4.7034,4.7077,4.7208,4.7228,4.7156,4.716,4.7336,4.7353,4.7369,4.7425,4.7441,4.7448,4.7452,4.7615,4.7615,4.7614,0,0,0,0,0,0,4.6723,4.6746,4.6961,4.6875,4.6904,4.7014,4.7062,4.7081,4.7118,4.723,4.725,4.7173,4.7337,4.7359,4.7429,4.7433,4.7451,4.7458,4.7615,4.7615,4.7615,4.7535,0,0,0,0,0,0,4.6715,4.6743,4.6758,4.6874,4.6908,4.7016,4.7062,4.7084,4.7131,4.7139,4.7252,4.7271,4.7339,4.7417,4.7436,4.7444,4.7464,4.7615,4.7615,4.7615,4.7538,4.7533,4.7528,0,0,0,0,0,4.6704,4.6727,4.6758,4.6782,4.6929,4.7016,4.7035,4.7113,4.7131,4.7147,4.722,4.7267,4.743,4.7423,4.7446,4.7456,4.7615,4.7615,4.7615,4.754,4.7534,4.7528,0,0,0,0,0,0,4.6608,4.6744,4.678,4.6841,4.6916,4.7033,4.7056,4.7103,4.7175,4.7179,4.7273,4.7298,4.736,4.7415,4.7405,4.7502,4.7528,4.7532,4.7463,4.7458,4.7453,4.7439,4.747,0,0,0,0,0,4.6594,4.6652,4.6768,4.6811,4.6847,4.6945,4.6986,4.704,4.7121,4.7153,4.7231,4.7308,4.7378,4.7421,4.749,4.7547,4.7574,4.7565,4.756,4.7556,4.7558,4.7596,4.7594,4.7614,4.7614,4.7614,0,0,4.6565,4.6647,4.6678,4.6794,4.6858,4.6918,4.6971,4.7031,4.7077,4.7163,4.7234,4.7294,4.7387,4.7451,4.7483,4.7499,4.7559,4.7556,4.7551,4.7557,4.7596,4.7594,4.7592,4.7614,4.7614,4.7614,0,0,4.6543,4.661,4.6655,4.6719,4.6817,4.6883,4.6893,4.7005,4.7048,4.7121,4.7188,4.7244,4.736,4.7425,4.7473,4.748,4.7527,4.75,4.7473,4.7509,4.7507,4.7506,4.7511,4.7511,4.7502,4.7502,4.7502,0,4.6495,4.6588,4.6671,4.6729,4.678,4.6861,4.6909,4.6967,4.7082,4.7115,4.7131,4.7282,4.735,4.7432,4.7434,4.7469,4.7486,4.7487,4.75,4.7501,4.7501,4.7507,4.7508,4.7498,4.7498,4.7499,4.7499,0,4.6525,4.6588,4.6613,4.6723,4.6777,4.6828,4.6921,4.6965,4.7016,4.708,4.7155,4.724,4.733,4.7354,4.7402,4.7444,4.7451,4.7482,4.751,4.7494,4.7501,4.7503,4.7493,4.7494,4.7495,4.7496,0,0,4.6446,4.6605,4.6613,4.6666,4.6781,4.6832,4.6889,4.6978,4.7014,4.7092,4.7143,4.7241,4.7273,4.7327,4.7384,4.7415,4.7419,4.7444,4.7448,4.7438,4.7473,4.7449,4.745,4.7451,4.7451,4.7452,4.7465,0,4.6442,4.6548,4.6627,4.6703,4.6764,4.6844,4.6895,4.6971,4.7034,4.7096,4.7165,4.7234,4.7268,4.7302,4.7336,4.7411,4.7427,4.7411,4.7501,4.7503,4.7476,4.7453,4.7428,4.7436,4.7468,4.7469,4.7469,0,4.6452,4.6528,4.661,4.6723,4.6751,4.6795,4.6884,4.6942,4.7032,4.7075,4.7138,4.7198,4.7263,4.7285,4.7378,4.7365,4.7407,4.7449,4.7452,4.7463,4.7485,4.7466,4.744,4.7442,4.7474,4.7474,4.7473,0,4.6388,4.6512,4.6578,4.662,4.6752,4.6782,4.6838,4.6929,4.6978,4.7057,4.709,4.7174,4.7221,4.7286,4.7368,4.7376,4.7453,4.7481,4.7492,4.749,4.7505,4.7503,4.7487,4.7529,4.7529,4.7529,4.7529,0,4.6377,4.6424,4.6552,4.6592,4.6649,4.674,4.6794,4.6858,4.6938,4.6994,4.7068,4.7119,4.7224,4.7288,4.7352,4.7421,4.7441,4.7479,4.7496,4.7473,4.7468,4.7502,4.7504,4.753,4.753,4.753,4.753,0,4.6315,4.6402,4.648,4.66,4.6631,4.6668,4.6771,4.6815,4.6882,4.6952,4.6974,4.708,4.7159,4.7248,4.7356,4.74,4.7465,4.7488,4.7434,4.7444,4.7452,4.745,4.7457,4.7464,4.75,4.7499,4.7499,0,4.6302,4.6341,4.6466,4.6509,4.6564,4.6632,4.6683,4.6776,4.6826,4.6934,4.6965,4.705,4.7124,4.7247,4.7335,4.7419,4.7446,4.7443,4.7459,4.7436,4.7448,4.7445,4.7451,4.7438,4.7437,4.7436,4.7435,0,4.6271,4.6313,4.6384,4.6472,4.6532,4.6605,4.6681,4.6712,4.682,4.6874,4.6957,4.7013,4.7126,4.721,4.7306,4.7366,4.7419,4.743,4.7438,4.7415,4.7383,4.7403,4.7423,4.7429,4.743,4.743,4.7431,4.7431,4.6235,4.6275,4.637,4.6448,4.6515,4.6586,4.6633,4.6708,4.6779,4.6878,4.6928,4.7011,4.7104,4.7238,4.7296,4.7363,4.738,4.739,4.7393,4.7395,4.739,4.7372,4.7381,4.7381,4.7381,4.7382,4.7382,0,4.6209,4.6275,4.6346,4.6451,4.6514,4.6559,4.6647,4.6696,4.6768,4.685,4.6922,4.7018,4.7102,4.7197,4.7286,4.7322,4.7349,4.7343,4.7341,4.7355,4.7368,4.7354,4.7319,4.7319,4.7319,4.7319,4.7319,4.7319,4.6203,4.6274,4.6327,4.6433,4.6499,4.6581,4.6628,4.6694,4.676,4.6865,4.6935,4.6997,4.7085,4.7183,4.7262,4.7288,4.7318,4.7305,4.7338,4.7348,4.7353,4.7358,4.7345,4.731,4.731,4.7319,4.732,4.732]}]]